GFSWCAN_925_rhum_123.txt.gz
RH
88 86 89 94 97 95 92 92 89 76 69 64 72 73 78 68 60 47 65 54 61 93 79 75 64 77 76 65 61 65 71 76 81 78 75 81 87 87 87 79 83 77 82 86 92 88 90 81 93 83 93 90 80 77
91 93 86 96 97 96 95 97 87 75 73 64 71 71 78 73 59 49 53 49 49 80 80 75 67 65 54 53 79 86 74 87 78 78 78 80 90 92 82 94 74 80 73 78 84 87 90 89 88 76 75 80 83 73
94 89 87 90 99 97 97 98 91 71 64 64 78 74 83 72 56 48 51 46 50 88 81 75 80 67 60 57 58 78 87 80 77 75 88 87 86 80 92 96 79 84 72 79 84 90 86 79 70 71 78 86 75 67
89 95 92 95 98 97 96 98 96 72 64 74 81 76 80 69 59 47 52 58 55 87 92 82 68 70 62 57 62 62 74 73 77 73 79 77 81 78 85 79 79 82 75 82 90 91 81 76 68 71 73 67 67 67
95 94 88 93 96 97 97 98 97 78 72 81 80 76 74 67 59 51 58 70 61 70 90 83 71 71 65 64 65 63 65 73 70 66 75 77 79 76 86 79 85 76 82 84 85 85 76 79 67 65 67 70 66 65
98 93 88 92 96 98 98 98 95 90 73 82 82 83 76 68 56 49 89 61 61 58 83 90 76 69 62 61 64 71 75 78 75 70 75 73 74 72 83 85 82 77 80 83 88 80 84 79 69 65 67 66 65 66
94 95 98 97 98 98 99 98 93 77 82 87 82 81 78 68 55 86 89 81 67 59 87 88 88 72 63 66 77 74 79 80 71 80 77 73 76 73 87 90 76 78 86 84 75 70 75 66 68 64 64 69 72 71
100 100 98 98 98 99 99 98 97 85 82 83 79 73 74 74 79 88 91 81 68 70 83 88 94 84 64 76 80 84 78 77 79 79 84 79 78 82 86 83 82 82 81 76 73 73 64 64 65 68 70 68 68 68
100 99 99 98 99 99 99 98 94 88 80 76 72 68 59 63 92 95 84 73 73 68 90 88 90 98 78 88 85 82 78 82 77 83 79 77 80 85 74 82 84 78 77 79 71 69 67 64 66 66 64 64 67 71
98 99 99 98 98 100 98 93 88 74 63 62 60 58 90 91 95 83 72 87 90 93 90 89 86 93 83 88 85 82 87 87 83 81 80 87 84 77 80 74 75 74 70 66 74 77 70 69 67 66 64 65 67 72
100 99 98 99 100 100 98 93 73 74 65 63 98 97 95 99 85 92 98 92 93 94 86 88 81 92 84 85 84 84 88 91 84 82 81 88 89 82 78 80 76 72 65 62 60 60 61 61 65 67 69 72 74 78
96 97 98 98 99 99 99 98 81 70 62 74 86 99 99 92 96 82 89 97 87 81 87 90 87 86 93 85 83 93 90 87 86 86 84 85 80 74 83 81 80 74 67 65 63 63 66 66 67 68 72 75 78 80
94 90 90 91 95 99 99 91 62 65 87 90 90 99 92 96 90 92 92 86 83 94 96 96 97 96 91 84 92 84 88 96 85 88 87 81 72 74 80 78 81 81 76 69 69 70 72 75 75 75 81 84 77 72
86 82 78 90 93 99 98 81 74 87 67 92 90 99 85 98 90 91 87 88 89 91 95 94 97 90 93 93 93 85 84 84 91 91 82 76 79 84 79 77 78 84 84 78 79 79 82 82 81 78 72 72 67 62
64 71 84 95 100 96 82 71 75 64 81 96 86 98 88 88 93 93 91 94 96 91 91 89 88 83 90 92 88 87 95 95 85 80 78 77 86 87 88 87 91 91 91 89 86 86 84 81 81 81 76 68 63 60
85 92 97 96 99 91 72 64 58 64 88 89 90 95 96 97 98 98 96 99 96 91 87 82 84 86 87 85 83 86 83 85 77 82 80 90 91 90 90 89 89 87 88 89 85 83 82 80 77 74 73 68 58 50
72 97 97 98 95 90 69 59 60 92 94 82 96 97 97 97 98 99 100 100 93 88 88 82 78 75 82 87 87 81 85 78 78 87 89 94 92 91 90 87 87 86 88 87 85 83 81 77 72 78 83 63 53 52
96 100 100 96 83 73 80 74 86 83 89 94 94 97 97 99 98 98 99 99 94 88 85 80 82 88 90 91 87 84 84 87 93 95 93 93 93 88 85 88 85 82 85 86 83 84 82 80 80 75 60 50 55 62
100 95 85 73 57 57 80 81 82 87 92 93 92 96 99 98 97 98 99 99 99 88 89 89 88 88 89 85 82 84 89 94 95 95 92 96 93 89 86 82 83 84 85 86 91 88 86 73 71 67 63 63 72 75
91 81 69 54 48 66 82 89 87 85 86 88 94 95 96 98 98 98 98 98 99 99 99 97 93 90 88 85 86 86 90 92 91 96 95 92 96 91 91 90 88 91 91 92 93 85 85 85 77 66 65 70 84 89
79 73 60 53 74 77 89 89 84 91 93 91 94 90 98 86 97 98 94 93 95 97 97 96 94 89 94 99 98 93 92 90 88 86 86 94 97 94 94 94 87 91 88 90 88 89 84 82 77 72 70 73 76 86
94 64 63 69 90 84 86 85 92 92 92 95 94 92 99 98 97 97 94 96 96 94 94 94 96 94 99 99 98 94 92 89 87 91 92 94 96 93 93 96 94 93 90 93 87 87 87 69 73 75 75 76 80 86
72 62 71 74 84 88 100 93 87 90 88 90 90 89 90 96 95 90 97 88 95 94 98 95 93 95 97 99 95 94 92 88 90 91 93 92 93 92 95 98 96 93 92 92 83 73 69 70 76 78 89 91 91 83
66 69 82 97 86 99 93 97 80 82 87 96 93 95 94 90 95 93 91 92 92 93 92 93 94 97 96 92 91 93 90 86 90 92 90 93 93 98 96 96 92 84 79 72 74 75 76 76 79 86 84 80 81 84
75 81 80 100 87 98 98 98 96 94 100 92 91 94 88 95 91 94 89 91 93 94 94 94 92 91 93 94 94 96 89 84 87 89 95 90 95 100 100 97 92 84 79 79 86 85 82 82 88 87 86 85 84 71
82 90 90 92 98 94 98 100 100 100 98 99 98 94 95 95 98 97 93 96 96 93 95 95 95 94 94 96 94 96 93 85 82 96 97 92 89 92 97 98 99 97 87 82 75 80 89 96 96 95 95 84 76 86
95 100 96 91 92 86 98 97 92 95 99 100 98 97 97 99 100 95 94 96 94 96 100 99 99 98 96 96 97 97 97 95 93 93 98 95 91 86 80 86 92 85 90 91 91 88 90 94 95 94 86 94 97 97
95 96 91 95 99 96 96 100 100 100 96 93 95 96 98 92 90 93 93 96 97 96 97 96 96 97 96 97 97 96 96 96 97 97 96 96 94 92 93 83 77 75 74 76 75 76 79 82 86 93 97 96 96 95
100 98 93 97 96 95 96 96 95 94 93 95 96 95 94 91 94 95 89 95 96 96 96 96 96 97 97 96 96 96 96 96 96 94 94 94 95 96 96 89 78 74 73 72 70 70 80 87 89 87 85 81 91 94
96 95 96 96 97 94 95 94 95 96 94 94 91 91 91 95 96 96 96 95 95 97 98 97 97 94 96 96 97 96 96 96 96 94 93 94 95 96 94 82 70 56 48 49 60 67 65 64 74 82 89 96 96 90
96 95 95 96 96 96 95 96 96 95 95 94 95 94 94 95 96 96 95 96 97 98 96 97 97 96 95 95 96 96 97 92 80 71 82 94 94 88 63 49 48 47 48 52 62 72 82 87 89 90 88 80 70 62
96 95 95 95 95 95 95 95 95 95 96 95 95 94 95 95 94 94 95 96 96 95 96 95 95 96 97 97 96 89 77 76 84 92 93 84 65 64 68 68 64 59 59 65 74 76 71 70 72 66 59 61 75 85
95 95 95 95 95 95 95 95 94 94 94 94 94 94 94 94 94 95 96 96 96 96 96 96 97 97 97 91 82 77 75 77 75 72 71 77 82 83 77 70 62 56 53 55 57 55 56 55 54 59 73 84 82 79

GFSWCAN_925_rhum_129.txt.gz
RH
96 95 100 99 92 92 85 85 80 70 72 80 76 82 76 66 59 68 67 69 44 52 47 38 36 40 33 30 44 42 46 45 43 43 34 38 42 42 47 36 42 43 50 64 56 61 81 53 66 79 76 56 50 50
92 95 98 97 96 94 91 91 83 71 74 71 78 78 71 58 49 60 52 59 44 40 61 58 58 52 43 36 33 46 37 34 32 32 35 34 52 53 38 66 41 54 45 63 67 84 75 64 73 56 51 53 50 50
88 100 91 92 100 96 94 87 73 75 71 80 83 74 61 49 43 56 48 48 45 55 44 42 55 58 58 56 54 40 44 48 49 52 45 46 49 37 54 40 52 51 44 58 71 77 69 66 64 56 51 52 48 46
98 99 88 95 97 95 91 81 72 72 72 72 78 68 55 47 62 62 60 65 42 40 64 59 51 59 58 52 50 50 52 54 48 45 46 46 44 48 39 46 42 45 47 63 80 70 63 61 72 68 57 50 48 46
98 98 87 98 96 95 95 78 72 61 64 72 75 61 50 47 54 68 65 65 60 41 60 62 51 56 50 48 46 46 44 45 42 44 52 46 39 43 43 44 46 43 61 72 77 68 62 63 61 58 57 52 47 47
100 96 90 99 99 98 98 80 66 62 76 77 73 59 54 52 59 48 94 66 59 37 50 72 54 52 49 46 44 42 41 39 34 35 41 43 50 52 50 46 50 45 43 49 67 56 58 58 55 50 51 48 46 44
100 94 93 99 98 98 98 86 70 79 80 77 70 62 56 47 50 56 75 68 61 58 55 62 60 51 46 43 44 42 41 40 33 36 37 37 46 47 55 49 53 50 52 53 51 57 65 56 58 49 46 45 47 43
98 90 96 100 98 100 98 97 92 88 83 77 67 58 54 56 68 63 73 60 68 42 39 64 77 58 49 47 54 45 45 39 44 42 40 36 44 44 50 46 47 49 51 56 54 47 51 47 47 45 46 45 43 43
91 91 100 100 100 97 92 94 98 88 79 68 58 56 59 67 60 62 57 73 66 51 61 68 69 86 48 53 50 50 44 63 45 52 43 41 43 55 42 40 44 48 52 54 49 46 47 50 46 46 46 45 43 43
95 97 99 99 99 94 97 98 97 82 71 59 58 72 100 81 74 74 56 58 62 53 50 61 54 80 50 53 57 61 56 55 61 51 46 55 49 48 39 34 37 44 44 46 55 57 53 52 50 49 48 45 42 43
97 96 100 99 90 92 98 99 93 70 59 59 83 94 94 79 62 62 98 72 60 64 55 55 57 75 54 65 66 55 60 56 61 64 59 54 50 54 46 40 41 43 43 45 44 45 45 46 49 49 48 47 47 46
98 100 99 95 88 93 96 91 80 70 64 63 80 83 78 64 73 86 74 64 51 53 61 66 59 54 69 55 56 63 68 67 63 54 70 66 58 46 48 47 46 46 46 45 44 45 46 46 48 48 49 51 51 52
100 100 98 94 89 91 86 93 78 70 79 84 71 91 85 84 89 81 87 64 74 70 74 72 86 69 68 58 77 65 90 77 57 74 64 49 51 48 50 50 51 49 50 49 48 50 49 50 50 51 53 56 66 75
100 98 100 94 90 82 70 59 74 82 64 59 87 93 89 90 70 61 51 66 82 71 71 73 76 68 70 83 91 86 79 67 79 77 54 54 68 58 55 53 54 60 68 58 56 55 60 62 69 61 69 81 80 91
100 97 96 91 75 64 65 84 66 76 69 83 71 84 78 79 84 89 83 80 75 68 72 71 66 64 82 97 75 75 88 76 59 52 67 75 85 70 69 67 96 99 97 95 89 85 84 89 88 91 95 91 91 91
99 99 96 82 64 70 62 66 74 70 64 70 75 86 82 87 98 100 100 94 75 75 62 51 68 83 84 74 74 77 53 51 62 69 70 69 87 82 86 90 100 99 95 96 93 90 91 90 89 89 94 92 93 83
98 99 88 71 66 71 81 67 60 66 69 74 92 90 100 97 100 100 99 86 74 70 92 56 79 74 59 63 65 49 66 70 71 77 78 91 95 94 97 98 98 98 96 94 93 89 88 90 91 88 87 91 85 83
99 89 65 61 66 63 70 66 54 57 79 86 93 98 92 100 100 100 95 79 72 62 59 62 53 65 76 68 64 68 71 78 79 81 84 94 95 96 94 96 94 95 95 94 91 90 90 93 81 75 74 82 75 76
76 74 62 57 54 50 49 62 60 71 86 86 93 92 93 95 96 98 94 86 71 58 60 61 82 56 65 67 82 88 87 80 84 82 86 97 97 93 93 96 94 94 92 92 88 80 79 81 68 63 65 68 55 58
73 64 56 44 50 45 52 59 58 55 77 80 73 78 80 88 95 100 98 96 84 73 80 72 81 88 87 87 80 80 84 76 67 72 83 83 88 94 94 86 77 88 85 86 82 75 72 72 66 61 59 57 54 59
62 59 51 60 57 55 57 52 62 62 59 69 63 57 68 69 93 98 95 75 88 72 74 82 95 91 95 97 86 74 79 64 66 67 70 81 83 76 86 80 86 78 71 74 72 74 73 66 65 59 66 69 72 73
65 61 65 60 58 59 63 60 57 58 59 64 61 56 74 88 86 84 68 74 76 86 84 83 81 73 69 89 90 88 97 81 77 76 77 75 74 73 74 79 77 77 74 78 76 78 76 67 66 67 80 84 83 85
60 56 55 51 75 73 82 58 66 52 68 66 58 63 72 76 69 62 75 60 80 77 76 74 76 78 82 89 79 80 85 73 69 76 73 72 73 79 75 78 78 80 78 80 84 92 88 72 79 83 84 89 84 97
48 83 89 82 70 88 75 70 54 55 59 59 63 74 73 74 64 68 68 70 82 67 70 73 74 72 72 73 67 69 71 66 68 72 69 64 64 70 73 75 78 83 90 87 86 92 92 92 88 83 87 83 94 89
58 82 83 82 75 79 78 74 74 65 72 71 75 76 80 68 73 69 70 82 76 83 78 74 70 72 71 71 72 75 78 69 64 66 73 72 76 72 76 78 82 87 91 94 93 94 92 93 84 85 91 93 91 94
68 88 76 73 76 69 72 78 76 79 73 79 79 67 72 76 78 75 72 84 83 77 88 86 83 75 76 76 75 79 84 84 78 79 78 75 77 85 81 78 82 83 89 96 87 84 83 85 94 93 95 96 95 89
70 84 71 60 55 61 78 78 67 74 80 80 77 83 80 77 71 86 73 74 73 83 85 87 87 79 81 79 87 96 99 100 96 90 89 88 92 100 99 94 92 91 92 96 97 92 84 92 93 94 94 96 96 94
74 74 82 83 77 67 80 83 82 80 73 63 68 80 81 82 89 83 81 85 92 90 89 92 94 92 90 92 96 98 100 100 100 99 98 99 100 100 100 100 100 98 100 99 99 99 98 96 95 95 94 95 99 99
85 77 76 89 82 82 78 76 80 84 75 77 86 88 86 78 81 80 85 92 96 93 85 87 94 100 99 100 99 98 98 98 92 88 88 87 88 96 100 100 100 100 100 100 99 99 100 100 100 100 100 100 100 100
80 73 78 82 86 78 93 83 84 85 72 81 76 72 73 82 90 95 92 89 89 90 93 94 95 96 91 90 92 97 100 100 100 97 89 88 90 98 99 99 100 100 100 100 100 100 100 99 99 98 97 96 94 94
76 81 83 79 77 83 83 82 84 83 81 78 80 85 83 83 88 96 98 99 96 94 92 89 92 98 95 94 94 91 92 100 100 99 100 100 100 100 100 99 99 98 96 95 94 93 93 93 92 88 88 91 96 96
86 90 88 84 85 81 80 80 82 82 79 80 85 78 84 87 87 86 100 100 96 89 95 94 90 95 100 100 100 100 99 100 100 98 100 100 100 100 100 100 100 100 98 97 95 92 89 88 87 90 94 95 96 97
87 87 87 86 85 85 85 87 82 83 77 79 83 82 85 88 88 87 100 100 100 97 97 99 100 100 100 100 100 100 97 97 96 94 91 94 98 99 100 100 100 98 95 92 90 87 88 92 95 96 96 97 98 100

GFSWCAN_925_rhum_132.txt.gz
RH
91 88 84 93 98 80 86 87 89 88 96 96 97 95 91 83 68 76 70 75 67 73 57 39 39 46 39 42 61 52 51 42 54 48 43 38 50 37 42 34 54 51 60 63 54 57 90 48 56 73 70 52 49 51
88 94 86 98 96 81 82 87 83 86 90 96 95 91 85 72 52 62 74 71 60 59 68 56 57 51 40 41 42 47 36 42 35 41 34 34 50 55 38 65 36 52 45 71 77 84 68 67 74 54 47 50 50 54
81 98 88 100 92 86 86 88 80 72 92 94 83 80 68 54 47 60 54 54 50 59 51 49 56 50 47 48 43 46 37 38 39 55 44 51 48 36 57 46 46 48 40 67 71 72 67 71 56 49 45 48 46 47
82 95 96 99 98 93 90 89 76 71 90 82 80 75 58 64 63 53 53 53 44 44 72 60 48 47 46 42 47 48 48 45 42 44 46 47 53 42 47 49 50 47 43 66 79 68 65 63 64 56 51 46 46 45
94 94 100 100 99 95 89 74 76 74 81 77 79 60 51 66 66 65 61 58 52 43 64 63 46 45 44 42 42 44 45 49 46 46 55 49 41 40 39 41 45 40 60 74 74 68 63 70 67 61 61 53 45 45
80 98 100 98 99 92 82 71 66 68 76 83 66 55 70 68 65 56 97 57 46 36 53 71 44 44 42 40 39 40 39 37 33 33 40 46 48 59 59 49 44 42 40 46 66 56 61 67 62 59 60 51 45 43
94 100 97 99 94 97 78 69 63 72 80 74 63 56 47 42 50 59 74 64 58 45 58 70 62 46 39 37 38 40 34 40 33 38 37 38 45 48 65 53 48 44 50 49 50 56 65 57 59 48 45 44 44 40
99 99 96 98 100 98 79 67 66 74 74 70 58 53 55 54 57 57 59 55 58 44 37 67 73 57 44 50 56 42 42 39 46 42 38 38 46 43 51 48 44 46 48 51 52 48 52 48 46 45 43 44 41 42
100 97 100 100 98 98 78 76 81 79 70 60 61 62 63 69 53 54 50 51 56 49 58 74 69 77 48 49 47 48 42 72 43 56 45 39 49 56 41 36 41 45 50 52 45 46 48 49 47 44 44 42 44 45
94 92 98 99 99 97 95 87 82 72 62 57 64 82 100 73 58 69 57 63 67 50 46 64 56 76 50 51 55 62 63 63 64 56 45 59 60 49 33 29 34 41 41 45 51 56 53 53 50 48 46 44 43 44
98 100 99 88 89 92 95 96 83 70 60 60 86 91 77 68 61 62 96 77 61 62 50 60 55 75 49 65 67 57 66 60 62 63 60 64 61 58 37 33 36 38 38 41 42 44 45 46 50 53 51 46 44 45
100 99 92 93 90 97 99 91 71 66 64 64 74 73 73 59 74 88 73 57 48 58 57 70 64 57 70 59 58 67 71 73 69 54 69 66 69 42 40 39 41 41 41 42 42 44 46 45 48 50 50 49 47 46
99 99 89 90 98 99 98 95 74 63 70 75 72 93 86 81 85 73 81 54 78 73 68 73 85 68 67 66 92 73 88 82 57 75 68 70 57 44 45 43 46 45 46 44 44 44 46 49 49 50 52 52 55 69
100 95 90 97 95 98 98 70 79 70 57 59 83 77 90 88 68 68 63 76 79 75 75 77 74 73 76 90 99 82 83 68 74 73 60 74 70 60 56 56 54 63 75 65 61 55 58 64 68 56 59 60 71 86
98 92 92 87 75 69 74 72 69 72 67 78 69 76 78 85 90 90 90 76 71 71 75 76 72 71 82 94 78 75 84 73 62 62 83 88 79 66 69 88 96 93 92 94 84 84 84 76 82 90 76 78 81 89
100 97 90 73 66 78 69 69 70 65 61 69 74 80 82 89 95 99 100 97 88 79 71 60 70 85 81 77 72 74 55 55 71 88 84 82 83 87 94 100 97 99 99 98 89 86 84 83 87 93 92 94 90 84
96 97 68 62 64 60 64 64 61 61 69 75 90 93 100 100 100 100 99 85 74 81 92 62 82 69 63 62 62 50 81 88 87 88 93 90 91 88 88 94 100 99 98 91 96 92 92 90 91 95 94 100 90 85
89 73 58 64 67 59 59 57 52 60 82 94 91 98 95 100 100 100 99 84 81 70 61 62 57 59 75 63 76 79 89 92 92 88 90 90 89 88 90 92 95 95 93 94 92 93 94 95 90 86 85 94 84 86
71 70 64 66 67 48 49 56 58 74 86 95 99 94 90 99 99 96 98 92 80 54 68 61 83 60 77 83 95 96 94 91 91 87 93 94 92 91 89 94 95 94 95 93 90 87 87 87 75 72 75 77 67 69
49 49 55 55 50 42 52 55 52 63 87 83 76 83 81 93 99 100 99 81 78 71 83 79 96 100 99 99 94 89 89 83 80 89 86 85 90 94 90 88 86 90 90 88 84 77 79 78 70 66 69 67 61 64
50 55 53 51 49 53 53 50 62 59 65 76 60 61 89 94 100 100 90 74 88 78 91 96 97 94 94 94 92 78 84 72 80 82 82 89 83 80 90 82 82 80 75 78 75 75 73 71 68 63 66 66 68 70
54 53 54 52 52 53 61 53 54 52 60 64 60 58 76 94 92 87 70 87 97 95 92 90 84 74 78 92 93 90 96 76 75 74 74 77 76 72 75 80 79 77 75 82 81 87 79 81 70 69 78 85 86 96
54 48 52 48 75 72 78 52 60 47 69 65 57 64 70 73 68 59 74 70 85 73 71 72 71 73 78 84 76 76 76 70 76 76 73 73 76 76 74 77 76 85 86 92 94 98 89 89 76 87 91 93 96 97
51 83 91 81 68 84 69 69 47 51 57 56 60 67 71 71 62 66 66 86 79 65 68 68 67 65 67 66 68 73 72 65 69 71 70 63 68 71 73 78 91 97 99 95 94 99 98 97 96 98 97 96 95 94
58 84 85 79 70 68 67 67 68 54 65 64 66 69 74 65 69 66 68 93 88 88 83 80 70 65 68 81 80 77 76 73 77 72 72 77 77 75 78 86 92 90 95 95 96 98 97 98 98 98 92 95 91 97
75 85 71 66 70 63 62 67 66 65 62 70 72 67 70 76 72 70 84 86 90 89 90 90 84 86 83 79 90 88 92 94 98 77 84 88 92 95 89 84 84 92 97 97 96 96 95 93 97 94 95 97 97 96
66 76 60 54 48 55 70 71 61 67 69 72 70 77 71 71 66 88 76 84 86 90 85 90 88 86 91 89 90 98 98 99 94 90 92 94 99 100 99 97 94 98 95 94 95 92 92 96 97 96 97 97 97 96
65 68 76 79 72 57 72 70 71 70 70 64 67 77 77 85 92 89 87 90 89 87 90 92 94 96 96 96 95 97 99 98 95 92 93 94 96 98 98 98 98 94 96 97 97 97 97 97 96 97 98 99 97 96
76 70 68 79 73 74 71 72 80 77 74 74 86 92 86 82 87 88 88 90 91 93 93 95 98 96 96 95 95 99 99 99 96 91 90 88 86 97 99 100 100 97 96 95 95 95 94 94 95 96 99 98 100 100
75 64 69 73 81 74 90 87 91 87 72 81 72 69 75 86 92 95 96 95 93 93 95 97 98 98 95 96 95 97 100 100 100 99 93 88 92 99 99 99 99 100 100 96 94 96 89 86 88 90 95 96 96 98
68 74 78 73 74 88 90 86 82 80 78 80 82 85 91 87 92 97 97 100 99 98 97 94 95 99 97 98 96 91 93 100 98 98 98 96 97 100 98 96 95 94 93 93 93 94 95 95 94 94 94 97 97 99
88 91 91 89 92 84 79 86 85 84 87 82 88 80 82 87 90 87 100 100 98 89 97 95 90 95 99 100 98 97 97 99 98 99 100 98 97 97 96 95 97 95 95 94 94 92 93 93 94 95 96 98 98 95
90 90 90 89 89 87 84 86 81 82 76 81 88 82 89 90 91 89 99 100 99 96 96 98 100 100 97 95 96 96 95 96 96 96 96 96 96 96 98 98 93 88 87 87 88 92 97 98 98 98 97 99 100 100

GFSWCAN_925_rhum_138.txt.gz
RH
93 96 91 88 88 84 84 82 98 74 77 83 93 96 90 94 100 98 87 91 95 96 85 74 71 82 84 84 86 87 86 86 76 72 75 66 66 60 68 61 71 81 82 92 89 88 91 62 55 74 71 71 69 70
91 89 89 86 85 83 80 86 95 82 94 96 84 90 97 99 98 96 92 89 82 97 90 76 71 61 68 59 72 68 68 70 67 66 66 61 82 79 76 95 65 81 68 84 81 85 81 71 67 63 62 77 76 71
91 90 90 83 83 90 84 100 89 84 93 93 93 97 100 96 95 96 92 96 91 92 95 93 80 67 61 62 56 81 76 52 59 63 82 82 60 70 85 82 77 65 66 90 81 80 80 69 61 62 67 79 77 75
92 91 88 81 90 82 96 100 93 83 84 89 90 97 94 93 93 93 99 90 76 87 99 96 61 51 54 55 50 49 50 57 66 75 74 77 67 63 72 72 76 69 72 87 91 78 76 69 66 72 73 70 70 68
88 88 80 90 96 89 96 97 84 81 76 85 94 95 89 96 100 95 93 84 74 70 98 78 50 47 48 45 42 46 53 62 67 64 74 69 72 62 65 74 74 64 82 85 83 78 76 79 73 66 70 69 64 63
87 85 79 97 92 96 99 89 80 80 86 92 92 87 88 100 92 94 99 65 54 48 79 90 61 54 48 49 52 57 63 67 65 68 77 75 62 73 85 92 68 68 66 69 81 72 75 82 69 58 67 65 60 58
93 85 88 91 98 100 93 84 81 86 96 92 85 87 86 72 77 75 80 60 46 41 81 89 77 60 45 58 69 63 59 70 63 66 69 72 64 72 92 92 74 71 74 78 72 80 86 76 79 58 58 52 52 49
98 92 98 99 100 98 94 84 81 97 95 85 78 77 73 64 59 53 60 56 55 55 71 92 89 70 53 74 72 74 68 72 73 65 70 71 65 71 87 75 72 73 76 76 70 68 78 75 64 62 60 58 61 58
99 92 99 99 100 93 72 74 80 93 85 79 77 62 67 63 70 50 56 48 47 56 88 92 90 91 66 75 77 75 78 84 76 80 67 69 75 74 71 71 73 71 72 74 70 72 77 78 75 67 62 60 60 60
86 100 100 97 90 73 71 68 87 82 85 76 65 54 86 62 65 48 37 77 81 83 85 91 84 91 77 84 88 82 88 88 88 79 73 91 92 69 56 59 62 66 66 68 79 81 77 72 67 63 60 60 56 57
100 100 99 87 71 62 64 78 92 90 73 66 96 98 64 66 46 87 86 82 90 84 83 83 80 90 83 86 91 84 90 90 90 80 80 93 94 80 56 64 62 63 61 63 60 64 63 65 67 70 68 60 54 50
99 96 91 73 65 73 76 75 76 70 65 63 70 69 62 81 90 82 95 80 79 83 80 88 86 85 88 81 84 88 85 91 94 87 87 94 89 62 64 64 63 65 63 64 61 68 67 64 61 61 63 62 53 46
100 95 87 78 75 76 79 69 72 72 67 53 62 82 79 87 86 72 85 83 93 94 89 88 90 86 87 88 95 90 90 96 91 91 90 91 79 67 68 69 70 65 62 63 66 63 61 63 57 56 62 55 50 49
99 100 96 86 83 79 69 72 75 64 61 82 75 72 84 93 94 93 94 99 93 95 86 93 97 94 98 95 96 86 92 89 93 93 86 93 78 77 76 74 72 74 78 78 75 70 69 66 64 56 51 52 50 53
88 97 99 98 97 80 68 68 63 60 66 89 81 99 97 98 99 99 99 97 97 88 87 92 92 90 98 95 93 90 92 92 88 88 94 98 86 87 83 81 84 84 85 85 77 78 76 70 68 71 63 53 49 52
99 100 99 95 76 62 48 45 51 60 74 86 93 92 95 94 96 94 97 99 96 96 85 87 92 93 94 92 90 84 82 88 91 100 100 98 99 99 98 96 98 91 81 80 76 74 76 74 76 76 75 66 58 55
96 98 89 74 60 53 45 52 55 78 92 87 99 99 98 97 99 95 100 100 96 91 96 93 85 82 88 91 87 97 93 99 98 99 97 95 96 98 99 97 97 93 87 83 83 79 80 80 80 84 91 84 73 70
80 72 71 66 51 45 55 55 75 88 96 99 98 99 99 99 96 98 99 100 92 96 91 74 81 75 92 91 99 100 99 98 98 93 97 96 87 85 91 99 99 93 93 88 84 90 90 89 88 88 86 90 88 87
69 63 57 55 50 51 73 64 73 97 99 99 100 100 99 99 99 99 100 97 91 92 90 94 92 96 100 100 99 99 98 96 98 97 97 94 89 93 94 95 95 97 95 94 92 94 90 85 81 87 88 90 88 86
59 54 54 53 52 54 68 81 69 90 98 99 99 99 100 100 100 100 99 93 93 95 96 97 99 99 99 100 100 99 99 96 94 98 99 97 90 94 94 93 97 97 97 95 92 92 94 92 90 88 87 85 84 82
53 54 50 50 54 56 87 81 80 86 93 97 94 97 99 99 99 99 99 92 94 99 99 99 99 99 98 98 91 88 91 90 97 97 96 99 94 89 89 95 93 91 91 90 91 94 88 89 84 89 84 80 73 68
53 46 43 50 69 72 84 74 76 76 89 92 84 87 98 98 98 99 96 93 98 98 99 99 99 97 94 96 94 87 86 84 88 90 85 88 96 94 90 87 89 89 89 86 84 86 86 82 78 84 83 70 72 73
48 47 61 63 77 80 81 72 70 70 86 84 83 89 94 95 94 83 98 97 99 99 92 88 83 84 89 82 83 88 83 81 91 91 88 91 90 85 86 88 86 89 93 90 87 88 93 96 84 85 80 85 93 98
43 83 92 93 85 92 85 83 88 83 82 85 86 86 88 93 88 97 98 98 98 98 96 93 87 92 86 86 96 100 97 84 90 93 86 86 94 99 92 95 95 97 100 99 99 99 98 96 90 96 97 97 97 97
60 79 79 85 86 80 85 87 85 79 84 84 84 94 92 88 90 97 95 98 98 98 96 92 92 94 93 99 99 99 98 91 96 98 100 90 92 94 93 91 94 91 97 98 98 98 98 97 97 97 97 96 96 96
91 87 78 86 87 83 89 86 84 82 89 86 94 94 95 93 92 99 95 98 98 98 100 98 98 95 94 96 96 99 100 98 87 100 100 97 97 92 93 98 96 92 100 99 95 96 98 98 97 97 97 97 94 94
95 91 90 79 91 81 89 91 84 88 86 90 93 92 94 95 99 98 98 97 98 98 97 97 98 96 98 100 99 96 96 97 90 99 98 96 99 99 94 96 100 99 100 100 94 92 95 96 96 94 95 96 96 96
88 89 93 90 87 91 90 94 92 99 97 96 88 96 95 96 98 98 98 98 99 96 90 96 96 94 92 90 90 92 97 94 91 93 94 96 97 97 96 97 100 100 98 99 95 95 91 90 92 94 94 95 96 96
92 89 86 84 80 82 89 98 97 91 91 87 95 98 97 97 98 97 96 89 87 97 98 100 99 96 98 98 98 97 94 89 87 98 100 100 98 98 98 98 97 98 99 97 98 97 96 95 94 94 95 94 96 91
89 94 91 94 98 98 98 98 98 96 88 90 90 96 98 97 97 96 95 94 95 96 98 97 99 98 99 91 97 97 96 96 96 90 97 100 98 100 97 96 96 96 96 94 93 96 96 92 95 93 91 89 83 80
89 86 83 94 97 98 99 91 78 77 86 97 96 96 98 99 97 93 90 95 95 92 97 96 95 96 97 93 89 92 98 97 99 97 86 90 95 91 92 95 95 91 88 86 86 85 82 76 72 70 69 73 76 73
95 96 97 96 97 98 94 96 96 100 99 98 100 99 97 97 99 97 94 98 94 94 96 95 93 96 96 97 96 95 94 96 96 97 95 94 95 94 90 86 79 76 75 73 73 73 68 69 73 74 76 76 77 76
97 98 98 98 97 97 97 96 98 97 97 98 97 97 97 96 98 96 97 98 94 93 94 95 96 96 96 96 96 96 96 95 96 96 96 95 93 90 89 86 78 68 60 60 60 59 62 65 66 63 64 66 70 73

GFSWCAN_925_rhum_141.txt.gz
RH
92 86 83 81 77 78 73 74 81 91 85 82 80 81 84 95 96 98 96 93 98 98 85 83 70 81 85 85 95 90 92 91 86 95 95 90 79 71 74 66 84 89 95 97 98 96 86 60 61 69 70 74 75 76
92 85 87 88 85 85 78 77 75 85 91 84 78 82 83 91 96 100 98 86 90 99 97 86 75 74 66 58 77 74 74 81 79 87 76 68 86 83 76 89 70 82 71 80 76 82 81 74 69 64 67 78 77 76
91 90 88 85 85 86 79 75 78 89 88 83 85 85 93 91 93 99 96 86 100 99 95 92 85 71 69 57 53 84 79 61 60 63 78 76 65 75 93 88 84 70 65 88 78 80 80 70 66 65 68 76 77 71
92 87 88 87 86 85 83 78 74 90 83 89 88 87 92 99 100 98 97 93 100 92 100 97 71 68 69 66 65 66 71 70 77 81 76 79 68 70 81 72 76 72 68 85 87 80 77 74 68 76 82 80 80 77
85 83 80 88 83 82 78 88 98 90 82 88 96 95 100 98 96 97 98 97 97 90 100 99 66 52 59 67 64 63 71 74 73 68 71 71 76 72 74 76 78 70 81 84 80 72 70 73 80 78 79 80 77 75
83 81 84 88 83 87 83 93 97 90 79 82 85 97 100 94 95 100 100 97 99 93 84 99 83 63 60 62 65 68 65 67 67 73 83 83 69 72 90 92 70 70 65 62 76 76 74 82 77 66 75 73 70 69
82 77 90 86 91 92 87 93 94 84 78 84 94 99 97 100 97 97 91 79 78 66 80 90 96 60 53 60 71 63 66 74 66 72 75 72 67 74 93 91 75 77 77 79 80 77 79 71 75 68 66 65 60 58
81 89 84 91 92 91 96 96 89 81 85 95 98 99 98 100 100 86 71 65 56 58 71 91 88 70 54 74 69 79 73 74 81 72 76 68 68 72 84 77 80 80 82 83 74 71 74 73 63 63 62 60 62 56
88 90 91 84 86 97 99 90 84 88 92 99 98 100 96 84 84 60 66 61 59 56 88 91 89 89 67 80 79 80 75 87 80 81 70 72 76 69 67 80 80 79 73 79 79 82 76 71 73 68 60 62 60 61
96 98 94 96 99 96 96 85 86 96 98 100 92 75 100 62 67 47 40 77 81 84 83 91 86 92 78 86 89 82 88 89 89 82 77 91 92 72 65 67 70 74 73 75 86 92 89 86 80 73 68 65 60 58
99 89 98 100 100 93 80 85 91 99 100 88 96 92 63 65 45 81 85 82 90 88 85 87 83 92 85 83 93 86 90 92 87 82 72 92 92 78 62 69 72 70 70 68 64 72 74 74 76 75 70 64 57 53
97 99 100 93 80 74 76 88 99 100 80 67 73 63 57 79 83 75 92 83 81 86 85 90 87 85 93 80 85 88 84 91 92 90 88 93 89 68 73 73 71 71 72 69 65 72 72 68 66 67 66 64 55 48
100 92 87 75 66 80 97 96 98 87 71 53 60 74 76 85 80 65 78 89 95 95 92 90 93 90 87 88 94 90 90 95 90 90 87 90 83 72 73 73 72 70 68 69 69 69 68 68 62 60 62 56 52 50
97 76 74 82 85 90 95 85 72 64 52 78 71 72 80 94 80 94 98 98 94 97 92 94 98 95 99 96 95 87 92 89 94 95 91 94 80 81 79 76 73 74 81 78 77 74 73 69 67 58 53 52 52 54
91 86 86 81 73 73 76 73 59 55 67 88 84 99 97 98 98 99 97 99 98 89 87 92 93 91 98 95 94 90 92 95 89 88 94 98 92 84 81 79 89 86 90 90 80 78 76 72 68 64 60 53 51 52
100 89 82 76 56 53 62 55 50 60 78 88 95 93 95 94 95 98 99 98 98 96 86 88 94 92 94 93 89 80 84 89 92 100 99 98 98 99 98 94 95 88 83 81 77 74 74 72 70 70 72 66 58 52
97 100 97 71 53 50 42 48 59 86 94 88 99 99 100 98 99 98 99 100 97 91 91 93 85 85 90 93 93 93 91 94 98 99 98 98 99 99 99 98 96 86 84 83 83 79 81 78 76 78 82 77 66 62
90 85 65 61 49 45 57 57 81 88 96 99 98 99 99 99 98 99 99 100 92 96 92 77 84 81 93 96 99 100 99 99 98 98 98 96 94 98 99 99 94 88 88 86 83 88 88 84 83 86 82 82 79 77
71 67 56 52 46 49 73 71 76 97 99 98 100 99 99 94 98 100 100 97 94 93 92 95 92 94 100 100 99 99 99 97 98 98 98 96 94 96 99 98 94 91 88 90 88 89 88 87 83 83 84 87 88 92
52 51 49 45 42 56 71 84 74 90 98 99 99 99 99 100 99 100 99 97 94 95 94 91 100 99 99 99 100 99 99 92 93 98 99 98 98 94 96 97 99 98 98 96 94 91 92 93 92 89 87 88 88 89
48 46 49 51 57 61 88 84 86 90 96 98 99 99 99 99 99 99 99 95 93 99 98 98 99 99 99 95 94 94 94 94 98 95 94 98 97 91 95 97 95 94 94 94 96 96 90 92 88 90 86 84 80 75
51 50 47 52 71 70 85 81 80 83 92 94 89 94 98 98 98 99 97 93 99 98 99 99 99 99 94 96 97 94 94 92 92 92 90 91 97 97 99 94 92 94 90 88 88 89 85 83 81 86 94 83 72 71
41 45 59 58 71 76 77 72 72 74 86 87 86 92 96 97 98 93 97 98 98 99 99 97 99 88 92 93 90 89 87 87 96 96 96 95 92 90 93 94 91 93 95 92 91 92 90 95 93 91 96 78 84 92
51 79 92 92 81 87 83 86 88 81 82 87 88 89 89 94 95 93 99 100 98 98 97 96 92 90 88 93 96 99 99 92 96 95 93 91 97 100 95 95 96 96 99 100 100 99 98 98 96 97 96 97 98 96
68 77 78 84 84 82 89 91 87 80 92 88 87 96 92 94 94 98 97 99 98 96 96 98 96 92 97 98 96 98 100 93 95 98 100 95 97 95 97 98 98 99 98 98 98 98 98 98 97 97 97 94 95 96
91 87 77 91 89 88 91 88 87 85 93 91 98 93 94 94 93 100 95 98 98 98 100 99 98 94 93 96 95 97 99 99 90 97 100 98 99 96 96 96 96 94 100 99 96 97 99 98 97 97 97 97 95 94
83 87 88 81 93 82 90 92 86 90 91 93 94 93 93 97 100 97 98 97 98 100 100 97 97 90 96 100 99 97 98 98 93 99 100 99 100 99 94 92 100 100 100 100 98 92 93 96 97 96 96 97 96 96
90 90 85 88 85 90 95 98 98 98 98 95 89 97 96 95 96 97 98 98 100 97 95 97 95 89 92 94 92 94 98 96 96 94 95 97 99 98 98 98 99 100 100 98 93 92 93 93 93 96 95 95 96 97
93 95 87 92 92 94 100 88 98 96 94 96 96 100 93 97 98 97 98 95 97 97 96 100 100 97 97 96 94 93 96 92 80 98 100 100 97 97 100 100 100 99 99 100 98 97 96 92 93 93 94 94 96 97
85 92 93 100 97 98 99 98 98 94 94 93 93 98 97 97 97 97 97 96 96 95 98 96 100 91 95 93 99 100 100 99 98 97 96 98 90 99 100 98 96 97 96 92 92 98 97 94 96 95 94 92 83 74
94 94 89 98 98 97 98 94 84 84 94 97 97 96 97 99 98 95 92 94 96 97 96 96 96 97 97 96 95 96 95 93 95 98 95 82 91 99 98 96 96 96 94 92 92 92 93 92 89 85 79 72 70 64
97 96 98 97 97 96 96 99 97 100 99 97 97 100 98 99 98 94 95 99 98 96 96 96 94 97 97 96 96 95 92 97 97 97 94 92 93 95 95 92 88 84 80 78 75 72 64 59 60 62 66 66 66 65
96 96 97 96 97 97 96 95 97 97 97 97 97 97 98 96 98 95 98 98 96 95 95 96 96 96 97 96 96 96 96 96 96 96 96 95 88 81 78 74 70 65 60 60 62 58 57 59 61 60 62 64 67 67